ARIANE 2 DEB, 28570

Orbit data source: Space-Track

ARIANE 2 DEB, 28570 is space debris in HEO originally from a launch on Fri, 27 Jan 1989 UTC launched from the French Guiana (FRGUI). Debris objects in space refer to the collection of defunct objects orbiting the Earth. Examples of debris include non-operational satellites, rocket bodies, and fragments generated from explosions, collisions, or faulty payload assembly.

Not visible in the next 10 days
Identifier
28570, 1989-006AM
Orbit
HEO
Country
Flag of FRFR
Related business
Manufacturer
EADS/LV
Mission
Spacecraft
Bus & Motor
Unknown
Mass
Unknown
Launch date (UTC)
1989-01-27 (37 years ago)
Launch vehicle
Unknown
Launch site
French Guiana (FRGUI)
Object type
Payload
Rocket body
Debris
Shape & HBR
Unknown
Radar Cross Section
Medium (>0.1 m² and <1 m²)

Expand to show TLE details & history
Last TLE update: 3 days ago

TLE from 3 days ago
0 ARIANE 2 DEB
1 28570U 89006AM  25239.78314894  .00000008  00000-0  37845-2 0  9997
2 28570   7.1450 258.8926 7088648  95.5745  12.9393  2.29660595182582
Epoch: 2025-08-27T18:47Z
TLE epoch observation values (Epoch: 2025-08-27T18:47:44.068Z)
Latitude
0.52437°
Longitude
176.34009°
Altitude
4,352.612 km
Speed
7.606 km/s
True Right ascension
04h 58m 07s
True Declination
0° 31' 20"
Sunlit
Object was in daylight at epoch
Visualization orbit readout
Latitude
Unknown
Longitude
Unknown
Altitude
Unknown
Speed
Unknown
Apparent Right ascension
Unknown
Apparent Declination
Unknown
Sunlit
N/A
Visualization observer readout
Local Sidereal Time
08:00:36
Azimuth
Unknown
Elevation
Unknown
Doppler factor
Unknown
Orbital elements
Apogee altitude
35,099.045 km
Perigee altitude
688.231 km
Semi-major axis
24,271.775 km
Eccentricity
0.70886
Inclination
7.145°
RAAN
258.8926°
Arg. of periapsis
95.5745°
True anomaly
79.46895°
Mean anomaly
12.9393°
Eccentric anomaly
37.87383°
Mean motion
0.57397 °/min
Orbital period
627.21 mins
BSTAR
0.0037845
Loading maneuver chart data...
Computing Atmospheric mass density...
Loading historical data...
Loading historical data...
Loading historical data...
Loading historical data...
Loading historical data...
Loading historical data...
Loading historical data...

Documentation

Showing up to 5 results
|